Stations météo

réclame
Mon MeteoGroup
Xinzo De Limia, Espagne (8050): Température de l'air & dewpoint: 05.08.2020 06:00:00 - 11.08.2020 06:00:00 (CEST)Xinzo De Limia, Espagne (8050): Vitesse du vent & gusts: 05.08.2020 06:00:00 - 11.08.2020 06:00:00 (CEST)Xinzo De Limia, Espagne (8050): Direction du vent: 05.08.2020 06:00:00 - 11.08.2020 06:00:00 (CEST)Xinzo De Limia, Espagne (8050): Quantités de précipitations: 05.08.2020 06:00:00 - 11.08.2020 06:00:00 (CEST)
Date & Time tt [°C] td [°C] ff [km/h] ff [knt] fx [km/h] fx [knt] dd rr [mm]
11.08.2020 06:00:00 - - - - - - - -
11.08.2020 05:00:00 - - - - - - - -
11.08.2020 04:00:00 - - - - - - - -
11.08.2020 03:00:00 - - - - - - - -
11.08.2020 02:00:00 - - - - - - - -
11.08.2020 01:00:00 - - - - - - - -
11.08.2020 00:00:00 - - - - - - - -
10.08.2020 23:00:00 - - - - - - - -
10.08.2020 22:00:00 - - - - - - - -
10.08.2020 21:00:00 - - - - - - - -
10.08.2020 20:00:00 - - - - - - - -
10.08.2020 19:00:00 - - - - - - - -
10.08.2020 18:00:00 - - - - - - - -
10.08.2020 17:00:00 - - - - - - - -
10.08.2020 16:00:00 - - - - - - - -
10.08.2020 15:00:00 - - - - - - - -
10.08.2020 14:00:00 - - - - - - - -
10.08.2020 13:00:00 - - - - - - - -
10.08.2020 12:00:00 - - - - - - - -
10.08.2020 11:00:00 - - - - - - - -
10.08.2020 10:00:00 - - - - - - - -
10.08.2020 09:00:00 - - - - - - - -
10.08.2020 08:00:00 - - - - - - - -
10.08.2020 07:00:00 15,4 14,1 5 3 10 5 NNW 0,0
10.08.2020 06:00:00 14,2 13,0 1 1 5 3 WNW 0,0
10.08.2020 05:00:00 13,5 11,9 0 0 6 4 W 0,0
10.08.2020 04:00:00 14,3 12,6 0 0 6 3 SSW 0,0
10.08.2020 03:00:00 15,7 13,8 0 0 7 4 W 0,0
10.08.2020 02:00:00 16,5 13,9 2 1 7 4 WSW -
10.08.2020 01:00:00 17,8 14,5 5 3 12 7 W 0,0
10.08.2020 00:00:00 18,4 13,1 4 2 12 7 SSW 0,0
09.08.2020 23:00:00 20,5 13,3 8 4 12 7 W 0,0
09.08.2020 22:00:00 22,4 12,6 8 4 19 10 W 0,0
09.08.2020 21:00:00 25,8 12,6 10 5 21 11 WNW 0,0
09.08.2020 20:00:00 28,8 12,2 10 5 23 12 WNW -
09.08.2020 19:00:00 29,6 13,8 12 6 24 13 NNW 0,0
09.08.2020 18:00:00 29,6 14,5 17 9 28 15 N 0,0
09.08.2020 17:00:00 30,1 14,6 13 7 22 12 N 0,0
09.08.2020 16:00:00 28,8 14,2 14 7 22 12 N 0,0
09.08.2020 15:00:00 29,7 15,4 11 6 28 15 N 0,0
09.08.2020 14:00:00 28,6 15,9 10 6 19 11 NNE -
09.08.2020 13:00:00 26,7 15,7 3 2 12 6 NE 0,0
09.08.2020 12:00:00 25,2 16,0 3 1 7 4 NNE 0,0
09.08.2020 11:00:00 23,5 16,0 3 2 7 4 WSW 0,0
09.08.2020 10:00:00 19,3 17,1 2 1 5 3 S 0,0
09.08.2020 09:00:00 14,6 13,4 3 1 4 2 SSW 0,0
09.08.2020 08:00:00 11,9 10,5 0 0 0 0 N -
09.08.2020 07:00:00 12,4 10,8 0 0 0 0 N 0,0
09.08.2020 06:00:00 13,5 11,7 0 0 4 2 N 0,0
09.08.2020 05:00:00 14,9 12,7 2 1 6 3 WSW 0,0
09.08.2020 04:00:00 15,9 13,4 2 1 5 3 SW 0,0
09.08.2020 03:00:00 16,8 13,6 3 1 8 4 S 0,0
09.08.2020 02:00:00 18,4 14,3 5 3 10 6 SW -
09.08.2020 01:00:00 19,4 14,2 4 2 9 5 SW 0,0
09.08.2020 00:00:00 20,9 13,6 4 2 9 5 SW 0,0
08.08.2020 23:00:00 23,5 13,4 5 3 16 9 W 0,0
08.08.2020 22:00:00 25,5 13,1 6 3 14 8 WNW 0,0
08.08.2020 21:00:00 28,8 13,9 8 5 21 12 W 0,0
08.08.2020 20:00:00 31,0 13,8 11 6 23 12 NW -
08.08.2020 19:00:00 32,4 13,6 10 5 22 12 WNW 0,0
08.08.2020 18:00:00 33,6 14,1 8 4 21 12 W 0,0
08.08.2020 17:00:00 32,4 14,0 7 4 22 12 WNW 0,0
08.08.2020 16:00:00 33,3 14,8 10 5 23 13 NW 0,0
08.08.2020 15:00:00 32,3 14,4 11 6 23 12 NW 0,0
08.08.2020 14:00:00 30,6 13,9 14 7 23 12 N -
08.08.2020 13:00:00 32,3 14,4 3 1 14 7 WSW 0,0
08.08.2020 12:00:00 28,6 15,5 3 1 11 6 NE 0,0
08.08.2020 11:00:00 24,1 14,5 4 2 9 5 NNE 0,0
08.08.2020 10:00:00 18,9 15,5 2 1 5 3 W 0,0
08.08.2020 09:00:00 14,5 13,3 0 0 5 3 WNW 0,0
08.08.2020 08:00:00 11,5 10,0 0 0 4 2 ESE -
08.08.2020 07:00:00 12,0 10,4 0 0 6 3 E 0,0
08.08.2020 06:00:00 12,6 10,9 0 0 0 0 N 0,0
08.08.2020 05:00:00 13,4 11,4 0 0 3 2 N 0,0
08.08.2020 04:00:00 14,4 11,6 0 0 5 3 N 0,0
08.08.2020 03:00:00 16,1 12,4 3 2 5 3 S 0,0
08.08.2020 02:00:00 17,8 13,4 4 2 7 4 SSW -
08.08.2020 01:00:00 19,1 13,3 3 2 9 5 SSW 0,0
08.08.2020 00:00:00 20,8 12,2 4 2 8 5 WSW 0,0
07.08.2020 23:00:00 22,8 12,1 5 3 12 6 NW 0,0
07.08.2020 22:00:00 25,4 11,6 4 2 16 9 W 0,0
07.08.2020 21:00:00 28,7 11,3 11 6 23 12 NW 0,0
07.08.2020 20:00:00 31,5 13,3 12 7 24 13 NNW -
07.08.2020 19:00:00 32,7 12,8 11 6 22 12 NW 0,0
07.08.2020 18:00:00 33,5 13,6 9 5 24 13 WNW 0,0
07.08.2020 17:00:00 33,9 14,4 13 7 33 18 WNW 0,0
07.08.2020 16:00:00 33,7 15,2 12 7 27 14 N 0,0
07.08.2020 15:00:00 32,3 14,9 14 7 23 12 N 0,0
07.08.2020 14:00:00 31,2 15,2 7 4 18 10 N -
07.08.2020 13:00:00 30,3 14,4 8 4 16 9 N 0,0
07.08.2020 12:00:00 28,3 15,9 6 4 17 9 NE 0,0
07.08.2020 11:00:00 25,3 14,7 8 4 11 6 NNE 0,0
07.08.2020 10:00:00 21,3 14,4 2 1 7 4 E 0,0
07.08.2020 09:00:00 16,4 14,4 1 1 3 2 ENE 0,0
07.08.2020 08:00:00 13,0 11,1 1 0 3 2 NNW -
07.08.2020 07:00:00 13,3 10,6 0 0 4 2 N 0,0
07.08.2020 06:00:00 14,9 11,7 2 1 7 4 S 0,0
07.08.2020 05:00:00 15,7 12,1 4 2 9 5 SW 0,0
07.08.2020 04:00:00 15,6 11,3 1 0 3 2 W 0,0
07.08.2020 03:00:00 17,6 12,1 3 2 9 5 SW 0,0
07.08.2020 02:00:00 18,3 12,3 4 2 8 4 SSW -
07.08.2020 01:00:00 19,7 12,0 4 2 6 4 SW 0,0
07.08.2020 00:00:00 21,4 11,4 3 2 11 6 S 0,0
06.08.2020 23:00:00 24,4 11,3 6 3 13 7 W 0,0
06.08.2020 22:00:00 26,5 12,5 3 2 18 10 NNE 0,0
06.08.2020 21:00:00 29,8 13,2 8 4 23 12 NW 0,0
06.08.2020 20:00:00 33,2 13,3 11 6 23 12 W -
06.08.2020 19:00:00 34,6 12,8 14 8 27 15 NW 0,0
06.08.2020 18:00:00 35,6 11,9 15 8 26 14 WNW 0,0
06.08.2020 17:00:00 - - - - - - - -
06.08.2020 16:00:00 38,3 11,3 14 8 34 19 SSE 0,0
06.08.2020 15:00:00 37,1 11,1 14 7 28 15 SSE 0,0
06.08.2020 14:00:00 35,8 10,8 13 7 35 19 S -
06.08.2020 13:00:00 34,6 10,4 16 9 37 20 SE 0,0
06.08.2020 12:00:00 32,2 10,9 16 9 26 14 SE 0,0
06.08.2020 11:00:00 27,3 13,3 1 1 14 7 ESE 0,0
06.08.2020 10:00:00 18,8 16,2 4 2 8 4 SW 0,0
06.08.2020 09:00:00 14,3 12,8 0 0 13 7 S 0,0
06.08.2020 08:00:00 10,2 8,8 0 0 2 1 N -
06.08.2020 07:00:00 10,5 8,8 0 0 4 2 N 0,0
06.08.2020 06:00:00 11,4 9,7 0 0 4 2 W 0,0
06.08.2020 05:00:00 12,2 10,0 0 0 0 0 WNW 0,0
06.08.2020 04:00:00 13,2 10,5 0 0 4 2 N 0,0
06.08.2020 03:00:00 15,1 11,4 1 0 4 2 SW 0,0
06.08.2020 02:00:00 17,4 12,1 3 1 7 4 SSW -
06.08.2020 01:00:00 19,2 12,6 3 1 8 4 SW 0,0
06.08.2020 00:00:00 20,6 12,0 5 3 9 5 SSW 0,0
05.08.2020 23:00:00 23,4 11,8 7 4 12 7 W 0,0
05.08.2020 22:00:00 26,0 11,0 7 4 16 9 WNW 0,0
05.08.2020 21:00:00 29,7 10,8 11 6 24 13 NW 0,0
05.08.2020 20:00:00 32,4 10,4 13 7 23 12 NW -
05.08.2020 19:00:00 33,8 9,2 13 7 23 12 NW 0,0
05.08.2020 18:00:00 34,0 8,5 10 5 23 12 N 0,0
05.08.2020 17:00:00 33,9 9,2 10 5 23 12 NNE 0,0
05.08.2020 16:00:00 33,3 10,0 13 7 23 13 N 0,0
05.08.2020 15:00:00 32,9 9,0 4 2 16 9 N 0,0
05.08.2020 14:00:00 32,5 9,3 8 4 13 7 NNW -
05.08.2020 13:00:00 30,8 9,0 5 3 16 8 S 0,0
05.08.2020 12:00:00 29,0 9,7 6 3 19 10 SE 0,0
05.08.2020 11:00:00 22,8 11,2 1 1 6 3 NNW 0,0
05.08.2020 10:00:00 17,3 11,6 0 0 4 2 ENE 0,0
05.08.2020 09:00:00 11,6 10,0 0 0 3 1 N 0,0
05.08.2020 08:00:00 6,8 5,1 0 0 5 3 N -
05.08.2020 07:00:00 7,6 5,9 3 1 5 3 SSW 0,0
05.08.2020 06:00:00 7,7 5,6 0 0 2 1 N 0,0

tt = Température de l'air
td = dewpoint
ff = Vitesse du vent
fx = gusts
dd = Direction du vent
rr = Quantités de précipitations

stations d'obs. à proximité